User: anonymous   Login
Location: Ostrava
(49.8330°N, 18.2830°E)
Time: 02:36:30
(UTC+02:00)
Language:

Iridium 7 - Orbit

View from above orbital plane
View from above orbital plane
View from above satellite
View from above satellite

Ground track
Ground track

The orbit data is extracted from the following two-line orbital elements,

1 24793U 97020B   14297.31682300  .00000569  00000-0  19617-3 0   245
2 24793 086.3993 003.0782 0002269 109.6910 293.8090 14.34224374914616
Epoch (UTC): 24 October 2014 07:36:13
Eccentricity: 0.0002269
inclination: 86.3993°
perigee height: 776 km
apogee height: 779 km
right ascension of ascending node: 3.0782°
argument of perigee: 109.6910°
revolutions per day: 14.34224374
mean anomaly at epoch: 293.8090°
orbit number at epoch: 91461

The dashed part of the orbit path shows where the satellite is in the earth's shadow,  

DLR